Flag for Germany Weather past 2 weeks in Magdeburg, Saxony-Anhalt, Germany

Now
34 °F

Overcast.


Feels Like: 31 °F
Forecast: 30 / 37 °F
Wind: 3 mph from Southeast

Location: Magdeburg

Current Time: Jan 30, 2015 at 1:37:04 AM

Latest Report: Jan 30, 2015 at 1:00 AM


Visibility: 9 mi

Pressure: 28.76 "Hg

Humidity: 92%

Dew point: 32 °F

Location of MagdeburgLocation

Historic Weather in Magdeburg — Graph

°F

Magdeburg temperature yesterday

Maximum temperature yesterday: 40 °F (at 3:00 PM)
Minimum temperature yesterday: 33 °F (at 9:00 PM)
Average temperature yesterday: 36 °F

Past Weeks' High & Low Weather Summary

 TemperatureHumidityPressure
High49 °F (Jan 16, 1:00 AM)98% (Jan 20, 9:00 AM)30.34 "Hg (Jan 20, 9:00 AM)
Low24 °F (Jan 19, 7:00 AM)66% (Jan 16, 1:00 AM)28.79 "Hg (Jan 30, 12:00 AM)
Average35 °F86%29.92 "Hg
* Reported Midnight between Jan 14 and Jan 15 — Midnight between Jan 29 and Jan 30, Magdeburg, Weather by CustomWeather, © 2014

Note: Actual official high and low records may vary slightly from our data, if they occured in-between our weather recording intervals... More about our weather records

Advertising

Magdeburg weather history for previous 24 hours

 ConditionsComfort  
Time TempWeatherWind HumidityBarometerVisibility
12:00 AM
Jan 30
33 °FLow clouds.3 mph96%28.79 "Hg4 mi
11:00 PM
Jan 29
33 °FDrizzle. Low clouds.5 mph97%28.85 "Hg4 mi
9:00 PM33 °FPassing clouds.3 mph88%28.91 "Hg25 mi
8:00 PM34 °FPassing clouds.3 mph84%28.94 "Hg31 mi
7:00 PM35 °FPassing clouds.3 mph81%28.97 "Hg37 mi
6:00 PM35 °FPassing clouds.3 mph80%29.00 "Hg37 mi
5:00 PM37 °FPassing clouds.5 mph74%29.03 "Hg37 mi
4:00 PM38 °FPartly sunny.7 mph74%29.06 "Hg28 mi
3:00 PM40 °FPartly sunny.5 mph69%29.09 "Hg37 mi
2:00 PM40 °FScattered clouds.8 mph68%29.12 "Hg37 mi
1:00 PM39 °FPartly sunny.8 mph72%29.18 "Hg37 mi
12:00 PM38 °FOvercast.7 mph66%29.21 "Hg37 mi
11:00 AM37 °FOvercast.7 mph66%29.23 "Hg37 mi
10:00 AM36 °FPartly sunny.6 mph69%29.23 "Hg37 mi
9:00 AM35 °FScattered clouds.7 mph71%29.26 "Hg37 mi
8:00 AM34 °FSunny.3 mph79%29.26 "Hg37 mi
7:00 AM36 °FClear.5 mph69%29.26 "Hg31 mi
6:00 AM36 °FPassing clouds.6 mph70%29.29 "Hg28 mi
5:00 AM36 °FPassing clouds.6 mph75%29.29 "Hg25 mi
4:00 AM36 °FPassing clouds.7 mph79%29.29 "Hg22 mi
3:00 AM37 °FPassing clouds.6 mph74%29.32 "Hg25 mi
2:00 AM36 °FPassing clouds.6 mph81%29.29 "Hg31 mi
1:00 AM36 °FClear.6 mph85%29.32 "Hg43 mi
Weather by CustomWeather, © 2014

See weather overviewHow to use our weather pages